| time (UTC) | temp F | wind direction | speed MPH | gust MPH | rain 1hr in | rain 24hr in | rain mn in | humidity % | barometer mb |
| 20260831084512 | 41 | 105 | 0.0 | 0.0 | 0.00 | 0.01 | 0.00 | 64 | 1023.4 |
| 20260831083016 | 41 | 158 | 0.0 | 2.0 | 0.00 | 0.01 | 0.00 | 64 | 1023.2 |
| 20260831081520 | 42 | 87 | 0.0 | 1.0 | 0.00 | 0.01 | 0.00 | 66 | 1023.3 |
| 20260831080011 | 42 | 56 | 0.0 | 0.0 | 0.00 | 0.01 | 0.00 | 66 | 1023.3 |
| 20260831074506 | 42 | 56 | 0.0 | 2.0 | 0.00 | 0.01 | 0.00 | 64 | 1023.3 |
| 20260831073021 | 43 | 185 | 0.0 | 1.0 | 0.00 | 0.01 | 0.00 | 62 | 1023.1 |
| 20260831071506 | 43 | 193 | 0.0 | 0.0 | 0.00 | 0.01 | 0.00 | 61 | 1023.1 |
| 20260831070008 | 43 | 106 | 0.0 | 2.0 | 0.00 | 0.01 | 0.00 | 64 | 1022.9 |
| 20260831064530 | 44 | 105 | 0.0 | 0.0 | 0.00 | 0.01 | 0.00 | 62 | 1022.9 |
| 20260831063007 | 44 | 105 | 0.0 | 0.0 | 0.00 | 0.01 | 0.00 | 60 | 1022.8 |
| 20260831061508 | 44 | 55 | 0.0 | 0.0 | 0.00 | 0.01 | 0.00 | 62 | 1022.6 |
| 20260831060008 | 44 | 113 | 0.0 | 3.0 | 0.00 | 0.01 | 0.00 | 60 | 1022.6 |
| 20260831054513 | 45 | 205 | 0.0 | 1.0 | 0.00 | 0.01 | 0.01 | 60 | 1022.5 |
| 20260831053010 | 46 | 79 | 0.0 | 2.0 | 0.00 | 0.01 | 0.01 | 57 | 1022.5 |
| 20260831051509 | 47 | 208 | 0.0 | 4.0 | 0.00 | 0.01 | 0.01 | 50 | 1022.4 |
| 20260831050008 | 48 | 120 | 1.0 | 3.0 | 0.00 | 0.01 | 0.01 | 52 | 1022.5 |
| 20260831044511 | 48 | 116 | 0.0 | 0.0 | 0.00 | 0.01 | 0.01 | 51 | 1022.4 |
| 20260831043010 | 49 | 136 | 0.0 | 0.0 | 0.00 | 0.01 | 0.01 | 52 | 1022.3 |
| 20260831041510 | 49 | 111 | 0.0 | 1.0 | 0.00 | 0.01 | 0.01 | 52 | 1022.3 |
| 20260831040012 | 50 | 262 | 1.0 | 3.0 | 0.00 | 0.01 | 0.01 | 50 | 1022.2 |
| 20260831034509 | 52 | 159 | 0.0 | 5.0 | 0.00 | 0.01 | 0.01 | 45 | 1022.1 |
| 20260831033024 | 53 | 179 | 0.0 | 2.0 | 0.00 | 0.01 | 0.01 | 40 | 1021.9 |
| 20260831031517 | 56 | 57 | 1.0 | 2.0 | 0.00 | 0.01 | 0.01 | 29 | 1021.7 |
| 20260831030013 | 58 | 79 | 0.0 | 4.0 | 0.00 | 0.01 | 0.01 | 27 | 1021.7 |
| 20260831024514 | 60 | 183 | 0.0 | 8.0 | 0.00 | 0.01 | 0.01 | 28 | 1021.5 |
| 20260831023014 | 62 | 30 | 2.0 | 5.0 | 0.00 | 0.01 | 0.01 | 20 | 1021.4 |
| 20260831021529 | 62 | 32 | 2.0 | 5.0 | 0.00 | 0.01 | 0.01 | 20 | 1021.0 |
| 20260831020016 | 63 | 18 | 3.0 | 5.0 | 0.00 | 0.01 | 0.01 | 21 | 1020.9 |
| 20260831014518 | 66 | 65 | 1.0 | 5.0 | 0.00 | 0.01 | 0.01 | 21 | 1020.7 |
| 20260831013018 | 67 | 188 | 2.0 | 4.0 | 0.00 | 0.01 | 0.01 | 23 | 1020.6 |
| 20260831011535 | 68 | 262 | 2.0 | 5.0 | 0.00 | 0.01 | 0.01 | 24 | 1020.5 |
| 20260831010020 | 68 | 257 | 1.0 | 6.0 | 0.00 | 0.01 | 0.01 | 24 | 1020.5 |
| 20260831004504 | 69 | 261 | 3.0 | 5.0 | 0.00 | 0.01 | 0.01 | 21 | 1020.5 |
| 20260831003011 | 69 | 277 | 3.0 | 5.0 | 0.00 | 0.01 | 0.01 | 20 | 1020.5 |
| 20260831001510 | 68 | 295 | 4.0 | 10.0 | 0.00 | 0.01 | 0.01 | 20 | 1020.7 |
| 20260831000022 | 70 | 278 | 5.0 | 8.0 | 0.00 | 0.01 | 0.01 | 22 | 1020.8 |
| 20260830234513 | 68 | 283 | 6.0 | 10.0 | 0.00 | 0.01 | 0.01 | 20 | 1020.7 |
| 20260830233005 | 69 | 264 | 5.0 | 10.0 | 0.00 | 0.01 | 0.01 | 22 | 1020.7 |
| 20260830231510 | 69 | 293 | 3.0 | 9.0 | 0.00 | 0.01 | 0.01 | 22 | 1020.6 |
| 20260830230014 | 69 | 219 | 6.0 | 11.0 | 0.00 | 0.01 | 0.01 | 21 | 1020.9 |
| 20260830224521 | 70 | 135 | 4.0 | 13.0 | 0.00 | 0.01 | 0.01 | 23 | 1020.7 |
| 20260830223006 | 69 | 248 | 4.0 | 11.0 | 0.00 | 0.01 | 0.01 | 23 | 1020.9 |
| 20260830221518 | 69 | 219 | 4.0 | 11.0 | 0.00 | 0.01 | 0.01 | 22 | 1020.9 |
| 20260830220036 | 69 | 216 | 4.0 | 13.0 | 0.00 | 0.01 | 0.01 | 24 | 1021.0 |
| 20260830214521 | 70 | 127 | 3.0 | 11.0 | 0.00 | 0.01 | 0.01 | 26 | 1020.9 |
| 20260830213030 | 69 | 210 | 5.0 | 15.0 | 0.00 | 0.01 | 0.01 | 25 | 1021.0 |
| 20260830211504 | 69 | 249 | 6.0 | 14.0 | 0.00 | 0.01 | 0.01 | 25 | 1021.0 |
| 20260830210015 | 68 | 295 | 3.0 | 12.0 | 0.00 | 0.01 | 0.01 | 23 | 1021.1 |
| 20260830204528 | 68 | 215 | 5.0 | 14.0 | 0.00 | 0.01 | 0.01 | 26 | 1021.0 |
| 20260830203023 | 69 | 65 | 4.0 | 12.0 | 0.00 | 0.01 | 0.01 | 29 | 1021.0 |
| 20260830201530 | 69 | 169 | 3.0 | 11.0 | 0.00 | 0.01 | 0.01 | 30 | 1020.9 |
| 20260830200009 | 67 | 347 | 2.0 | 11.0 | 0.00 | 0.01 | 0.01 | 31 | 1020.7 |
| 20260830194518 | 67 | 210 | 4.0 | 8.0 | 0.00 | 0.01 | 0.01 | 32 | 1021.0 |
| 20260830193029 | 67 | 229 | 3.0 | 15.0 | 0.00 | 0.01 | 0.01 | 34 | 1021.1 |
| 20260830191525 | 66 | 206 | 3.0 | 10.0 | 0.00 | 0.01 | 0.01 | 36 | 1021.0 |
| 20260830190029 | 67 | 182 | 4.0 | 13.0 | 0.00 | 0.01 | 0.01 | 36 | 1021.1 |
| 20260830184508 | 66 | 179 | 6.0 | 14.0 | 0.00 | 0.01 | 0.01 | 38 | 1021.1 |
| 20260830183030 | 65 | 199 | 1.0 | 6.0 | 0.00 | 0.01 | 0.01 | 43 | 1021.1 |
| 20260830181530 | 65 | 141 | 2.0 | 5.0 | 0.00 | 0.01 | 0.01 | 47 | 1021.1 |
| 20260830180034 | 64 | 143 | 3.0 | 8.0 | 0.00 | 0.01 | 0.01 | 46 | 1021.1 |
| 20260830174548 | 65 | 162 | 5.0 | 11.0 | 0.00 | 0.01 | 0.01 | 48 | 1020.9 |
| 20260830173033 | 65 | 167 | 7.0 | 13.0 | 0.00 | 0.01 | 0.01 | 49 | 1020.8 |
| 20260830171526 | 64 | 145 | 6.0 | 12.0 | 0.00 | 0.01 | 0.01 | 52 | 1020.9 |
| 20260830170027 | 63 | 159 | 5.0 | 14.0 | 0.00 | 0.01 | 0.01 | 59 | 1021.0 |
| 20260830164532 | 63 | 160 | 6.0 | 10.0 | 0.00 | 0.01 | 0.01 | 63 | 1020.9 |
| 20260830163040 | 61 | 206 | 4.0 | 8.0 | 0.00 | 0.01 | 0.01 | 63 | 1021.0 |
| 20260830161519 | 60 | 157 | 3.0 | 8.0 | 0.00 | 0.01 | 0.01 | 68 | 1020.8 |
| 20260830160035 | 58 | 186 | 4.0 | 7.0 | 0.00 | 0.01 | 0.01 | 75 | 1020.7 |
| 20260830154531 | 57 | 119 | 3.0 | 7.0 | 0.00 | 0.01 | 0.01 | 73 | 1020.5 |
| 20260830153028 | 55 | 122 | 2.0 | 6.0 | 0.00 | 0.01 | 0.01 | 82 | 1020.5 |
| 20260830151545 | 55 | 146 | 2.0 | 4.0 | 0.01 | 0.01 | 0.01 | 80 | 1020.4 |
| 20260830150028 | 53 | 91 | 1.0 | 2.0 | 0.01 | 0.01 | 0.01 | 81 | 1020.5 |
| 20260830144528 | 52 | 137 | 0.0 | 2.0 | 0.01 | 0.01 | 0.01 | 84 | 1020.5 |
| 20260830143033 | 52 | 16 | 1.0 | 7.0 | 0.01 | 0.01 | 0.01 | 85 | 1020.6 |
| 20260830141506 | 53 | 201 | 2.0 | 6.0 | 0.00 | 0.03 | 0.00 | 82 | 1020.1 |
| 20260830140017 | 52 | 145 | 3.0 | 6.0 | 0.00 | 0.06 | 0.00 | 83 | 1019.6 |
| 20260830134534 | 51 | 119 | 5.0 | 10.0 | 0.00 | 0.13 | 0.00 | 86 | 1020.1 |
| 20260830133033 | 49 | 311 | 0.0 | 0.0 | 0.00 | 0.18 | 0.00 | 88 | 1020.2 |
| 20260830131538 | 49 | 343 | 0.0 | 0.0 | 0.00 | 0.20 | 0.00 | 87 | 1020.0 |
| 20260830130031 | 51 | 117 | 1.0 | 4.0 | 0.00 | 0.22 | 0.00 | 84 | 1019.8 |
| 20260830124536 | 51 | 169 | 1.0 | 9.0 | 0.00 | 0.23 | 0.00 | 83 | 1019.9 |
| 20260830123038 | 51 | 102 | 2.0 | 6.0 | 0.00 | 0.23 | 0.00 | 85 | 1019.8 |
| 20260830121526 | 50 | 140 | 0.0 | 3.0 | 0.00 | 0.23 | 0.00 | 86 | 1019.9 |
| 20260830120037 | 50 | 127 | 0.0 | 2.0 | 0.00 | 0.23 | 0.00 | 87 | 1019.8 |
| 20260830114521 | 50 | 114 | 0.0 | 2.0 | 0.00 | 0.23 | 0.00 | 86 | 1020.0 |
| 20260830113014 | 51 | 122 | 0.0 | 2.0 | 0.00 | 0.23 | 0.00 | 85 | 1020.1 |
| 20260830111532 | 52 | 169 | 1.0 | 4.0 | 0.00 | 0.23 | 0.00 | 83 | 1019.9 |
| 20260830110041 | 52 | 122 | 0.0 | 4.0 | 0.00 | 0.24 | 0.00 | 83 | 1020.1 |
| 20260830104537 | 50 | 78 | 1.0 | 3.0 | 0.00 | 0.25 | 0.00 | 87 | 1020.2 |
| 20260830103016 | 51 | 356 | 2.0 | 3.0 | 0.00 | 0.25 | 0.00 | 84 | 1020.1 |
| 20260830101529 | 52 | 131 | 1.0 | 4.0 | 0.00 | 0.25 | 0.00 | 81 | 1019.7 |
| 20260830100032 | 51 | 58 | 2.0 | 3.0 | 0.00 | 0.25 | 0.00 | 86 | 1019.8 |
| 20260830094528 | 51 | 114 | 0.0 | 2.0 | 0.00 | 0.26 | 0.00 | 85 | 1020.0 |
| 20260830093032 | 52 | 132 | 0.0 | 3.0 | 0.00 | 0.26 | 0.00 | 84 | 1019.9 |
| 20260830091534 | 52 | 126 | 1.0 | 3.0 | 0.00 | 0.26 | 0.00 | 83 | 1019.9 |
| 20260830090023 | 53 | 91 | 0.0 | 0.0 | 0.00 | 0.26 | 0.00 | 82 | 1019.7 |